Time,TemperatureF,DewpointF,PressureIn,WindDirection,WindDirectionDegrees,WindSpeedMPH,WindSpeedGustMPH,Humidity,HourlyPrecipIn,Conditions,Clouds,dailyrainin,SoftwareType,DateUTC
2013-01-19 00:00:00,29.4,16.4,30.39,SSW,196,5.0,6.0,58,0.00,,,0.00,Wunderground v.1.15,2013-01-19 05:00:00,
2013-01-19 00:10:00,29.6,17.0,30.38,SSE,167,5.0,6.0,59,0.00,,,0.00,Wunderground v.1.15,2013-01-19 05:10:00,
2013-01-19 00:15:00,29.8,16.8,30.38,South,191,6.0,6.0,58,0.00,,,0.00,Wunderground v.1.15,2013-01-19 05:15:00,
2013-01-19 00:20:00,30.0,17.0,30.38,SSW,210,6.0,6.0,58,0.00,,,0.00,Wunderground v.1.15,2013-01-19 05:20:00,
2013-01-19 00:25:00,30.8,17.7,30.37,SSW,192,7.0,7.0,58,0.00,,,0.00,Wunderground v.1.15,2013-01-19 05:25:00,
2013-01-19 00:30:00,31.3,17.4,30.37,SSE,166,8.0,8.0,56,0.00,,,0.00,Wunderground v.1.15,2013-01-19 05:30:00,
2013-01-19 00:35:00,31.1,17.6,30.36,SSE,161,7.0,8.0,57,0.00,,,0.00,Wunderground v.1.15,2013-01-19 05:35:00,
2013-01-19 00:40:00,31.0,17.5,30.36,SSE,157,6.0,9.0,57,0.00,,,0.00,Wunderground v.1.15,2013-01-19 05:40:00,
2013-01-19 00:45:00,31.1,17.6,30.36,SSE,165,6.0,9.0,57,0.00,,,0.00,Wunderground v.1.15,2013-01-19 05:45:00,
2013-01-19 00:50:00,31.1,18.0,30.35,SSW,193,6.0,8.0,58,0.00,,,0.00,Wunderground v.1.15,2013-01-19 05:50:00,
2013-01-19 00:55:00,31.1,17.6,30.34,South,188,7.0,12.0,57,0.00,,,0.00,Wunderground v.1.15,2013-01-19 05:55:00,
2013-01-19 01:00:00,31.3,17.4,30.34,SSW,213,8.0,8.0,56,0.00,,,0.00,Wunderground v.1.15,2013-01-19 06:00:00,
2013-01-19 01:05:00,31.5,17.2,30.35,South,189,9.0,12.0,55,0.00,,,0.00,Wunderground v.1.15,2013-01-19 06:05:00,
2013-01-19 01:15:00,31.7,17.4,30.36,SSW,200,9.0,15.0,55,0.00,,,0.00,Wunderground v.1.15,2013-01-19 06:15:00,
2013-01-19 01:20:00,31.9,17.1,30.36,SSW,211,8.0,15.0,54,0.00,,,0.00,Wunderground v.1.15,2013-01-19 06:20:00,
2013-01-19 01:25:00,32.1,17.7,30.36,South,172,7.0,15.0,55,0.00,,,0.00,Wunderground v.1.15,2013-01-19 06:25:00,
2013-01-19 01:30:00,32.3,17.9,30.36,SSW,213,6.0,15.0,55,0.00,,,0.00,Wunderground v.1.15,2013-01-19 06:30:00,
2013-01-19 01:35:00,32.8,18.0,30.35,South,185,7.0,15.0,54,0.00,,,0.00,Wunderground v.1.15,2013-01-19 06:35:00,
2013-01-19 01:40:00,33.1,17.4,30.36,SSW,199,8.0,15.0,52,0.00,,,0.00,Wunderground v.1.15,2013-01-19 06:40:00,
2013-01-19 01:50:00,33.9,17.7,30.35,SSW,208,10.0,10.0,51,0.00,,,0.00,Wunderground v.1.15,2013-01-19 06:50:00,
2013-01-19 01:55:00,34.0,17.3,30.35,SSW,200,9.0,15.0,50,0.00,,,0.00,Wunderground v.1.15,2013-01-19 06:55:00,
2013-01-19 02:00:00,34.1,17.8,30.35,SW,215,10.0,10.0,51,0.00,,,0.00,Wunderground v.1.15,2013-01-19 07:00:00,
2013-01-19 02:05:00,34.4,17.7,30.36,WSW,240,10.0,15.0,50,0.00,,,0.00,Wunderground v.1.15,2013-01-19 07:05:00,
2013-01-19 02:10:00,34.5,17.8,30.36,SSW,212,11.0,11.0,50,0.00,,,0.00,Wunderground v.1.15,2013-01-19 07:10:00,
2013-01-19 02:20:00,34.7,17.5,30.35,SSW,209,11.0,15.0,49,0.00,,,0.00,Wunderground v.1.15,2013-01-19 07:20:00,
2013-01-19 02:25:00,34.8,17.6,30.36,SW,225,10.0,15.0,49,0.00,,,0.00,Wunderground v.1.15,2013-01-19 07:25:00,
2013-01-19 02:30:00,35.1,17.4,30.36,South,172,11.0,11.0,48,0.00,,,0.00,Wunderground v.1.15,2013-01-19 07:30:00,
2013-01-19 02:35:00,35.1,17.8,30.36,SSW,194,11.0,15.0,49,0.00,,,0.00,Wunderground v.1.15,2013-01-19 07:35:00,
2013-01-19 02:40:00,35.2,17.9,30.36,SSW,210,11.0,15.0,49,0.00,,,0.00,Wunderground v.1.15,2013-01-19 07:40:00,
2013-01-19 02:45:00,35.5,17.7,30.36,WSW,242,12.0,15.0,48,0.00,,,0.00,Wunderground v.1.15,2013-01-19 07:45:00,
2013-01-19 02:55:00,35.7,17.9,30.35,SSE,163,12.0,16.0,48,0.00,,,0.00,Wunderground v.1.15,2013-01-19 07:55:00,
2013-01-19 03:00:00,35.7,17.9,30.35,SSW,213,11.0,11.0,48,0.00,,,0.00,Wunderground v.1.15,2013-01-19 08:00:00,
2013-01-19 03:05:00,35.8,18.0,30.35,SSE,165,11.0,12.0,48,0.00,,,0.00,Wunderground v.1.15,2013-01-19 08:05:00,
2013-01-19 03:10:00,35.8,18.0,30.34,SW,225,11.0,20.0,48,0.00,,,0.00,Wunderground v.1.15,2013-01-19 08:10:00,
2013-01-19 03:15:00,35.9,18.1,30.34,SSW,197,11.0,20.0,48,0.00,,,0.00,Wunderground v.1.15,2013-01-19 08:15:00,
2013-01-19 03:25:00,36.1,18.3,30.33,SW,225,13.0,15.0,48,0.00,,,0.00,Wunderground v.1.15,2013-01-19 08:25:00,
2013-01-19 03:30:00,35.9,18.1,30.33,SW,215,10.0,17.0,48,0.00,,,0.00,Wunderground v.1.15,2013-01-19 08:30:00,
2013-01-19 03:35:00,35.9,18.1,30.33,SSW,205,10.0,17.0,48,0.00,,,0.00,Wunderground v.1.15,2013-01-19 08:35:00,
2013-01-19 03:40:00,35.9,18.1,30.33,SW,219,11.0,15.0,48,0.00,,,0.00,Wunderground v.1.15,2013-01-19 08:40:00,
2013-01-19 03:45:00,35.9,18.6,30.33,SW,228,10.0,16.0,49,0.00,,,0.00,Wunderground v.1.15,2013-01-19 08:45:00,
2013-01-19 03:50:00,36.1,18.3,30.33,SSW,212,11.0,15.0,48,0.00,,,0.00,Wunderground v.1.15,2013-01-19 08:50:00,
2013-01-19 04:00:00,35.9,18.6,30.32,South,186,11.0,15.0,49,0.00,,,0.00,Wunderground v.1.15,2013-01-19 09:00:00,
2013-01-19 04:05:00,35.8,18.5,30.32,South,190,10.0,15.0,49,0.00,,,0.00,Wunderground v.1.15,2013-01-19 09:05:00,
2013-01-19 04:10:00,35.7,18.4,30.32,WSW,239,11.0,15.0,49,0.00,,,0.00,Wunderground v.1.15,2013-01-19 09:10:00,
2013-01-19 04:15:00,35.8,18.5,30.32,South,182,11.0,15.0,49,0.00,,,0.00,Wunderground v.1.15,2013-01-19 09:15:00,
2013-01-19 04:20:00,35.8,18.5,30.31,SSE,164,11.0,15.0,49,0.00,,,0.00,Wunderground v.1.15,2013-01-19 09:20:00,
2013-01-19 04:30:00,35.7,18.9,30.31,SSW,209,11.0,11.0,50,0.00,,,0.00,Wunderground v.1.15,2013-01-19 09:30:00,
2013-01-19 04:35:00,35.7,18.9,30.30,SSW,208,10.0,15.0,50,0.00,,,0.00,Wunderground v.1.15,2013-01-19 09:35:00,
2013-01-19 04:40:00,35.7,19.3,30.31,SSW,205,9.0,15.0,51,0.00,,,0.00,Wunderground v.1.15,2013-01-19 09:40:00,
2013-01-19 04:45:00,35.6,19.2,30.30,SW,224,9.0,17.0,51,0.00,,,0.00,Wunderground v.1.15,2013-01-19 09:45:00,
2013-01-19 04:50:00,35.8,19.0,30.30,South,182,10.0,15.0,50,0.00,,,0.00,Wunderground v.1.15,2013-01-19 09:50:00,
2013-01-19 04:55:00,35.9,19.0,30.30,South,184,10.0,15.0,50,0.00,,,0.00,Wunderground v.1.15,2013-01-19 09:55:00,
2013-01-19 05:00:00,35.9,19.5,30.30,SSW,204,10.0,10.0,51,0.00,,,0.00,Wunderground v.1.15,2013-01-19 10:00:00,
2013-01-19 05:05:00,35.9,19.5,30.30,SSW,198,10.0,15.0,51,0.00,,,0.00,Wunderground v.1.15,2013-01-19 10:05:00,
2013-01-19 05:10:00,36.0,19.6,30.30,SSW,198,9.0,9.0,51,0.00,,,0.00,Wunderground v.1.15,2013-01-19 10:10:00,
2013-01-19 05:15:00,36.1,19.7,30.29,South,190,9.0,15.0,51,0.00,,,0.00,Wunderground v.1.15,2013-01-19 10:15:00,
2013-01-19 05:20:00,36.2,19.8,30.29,SW,234,9.0,9.0,51,0.00,,,0.00,Wunderground v.1.15,2013-01-19 10:20:00,
2013-01-19 05:25:00,36.3,20.3,30.29,SSW,193,9.0,10.0,52,0.00,,,0.00,Wunderground v.1.15,2013-01-19 10:25:00,
2013-01-19 05:35:00,36.6,20.6,30.29,SSW,210,10.0,15.0,52,0.00,,,0.00,Wunderground v.1.15,2013-01-19 10:35:00,
2013-01-19 05:40:00,36.8,20.8,30.29,SW,227,10.0,15.0,52,0.00,,,0.00,Wunderground v.1.15,2013-01-19 10:40:00,
2013-01-19 05:50:00,37.0,21.0,30.29,South,186,12.0,15.0,52,0.00,,,0.00,Wunderground v.1.15,2013-01-19 10:50:00,
2013-01-19 05:55:00,37.0,20.5,30.29,SSW,194,11.0,15.0,51,0.00,,,0.00,Wunderground v.1.15,2013-01-19 10:55:00,
2013-01-19 06:00:00,36.9,20.4,30.29,SSW,197,11.0,15.0,51,0.00,,,0.00,Wunderground v.1.15,2013-01-19 11:00:00,
2013-01-19 06:05:00,36.8,20.8,30.29,SSW,206,10.0,15.0,52,0.00,,,0.00,Wunderground v.1.15,2013-01-19 11:05:00,
2013-01-19 06:10:00,36.7,20.3,30.29,SW,216,10.0,11.0,51,0.00,,,0.00,Wunderground v.1.15,2013-01-19 11:10:00,
2013-01-19 07:50:00,36.2,21.6,30.27,SSW,212,9.0,23.0,55,0.00,,,0.00,Wunderground v.1.15,2013-01-19 12:50:00,
2013-01-19 07:55:00,36.3,21.7,30.28,SSE,156,9.0,23.0,55,0.00,,,0.00,Wunderground v.1.15,2013-01-19 12:55:00,
2013-01-19 08:00:00,36.3,21.7,30.27,South,178,8.0,8.0,55,0.00,,,0.00,Wunderground v.1.15,2013-01-19 13:00:00,
2013-01-19 08:05:00,36.2,22.0,30.27,SSW,197,7.0,23.0,56,0.00,,,0.00,Wunderground v.1.15,2013-01-19 13:05:00,
2013-01-19 08:10:00,36.3,22.1,30.27,SW,222,7.0,23.0,56,0.00,,,0.00,Wunderground v.1.15,2013-01-19 13:10:00,
2013-01-19 08:15:00,36.4,22.2,30.27,South,183,7.0,23.0,56,0.00,,,0.00,Wunderground v.1.15,2013-01-19 13:15:00,
2013-01-19 08:20:00,36.4,22.2,30.27,South,189,7.0,23.0,56,0.00,,,0.00,Wunderground v.1.15,2013-01-19 13:20:00,
2013-01-19 08:25:00,36.6,22.4,30.27,SSE,147,6.0,23.0,56,0.00,,,0.00,Wunderground v.1.15,2013-01-19 13:25:00,
2013-01-19 08:30:00,36.7,22.5,30.28,South,188,7.0,7.0,56,0.00,,,0.00,Wunderground v.1.15,2013-01-19 13:30:00,
2013-01-19 08:40:00,37.1,23.3,30.28,SW,224,7.0,7.0,57,0.00,,,0.00,Wunderground v.1.15,2013-01-19 13:40:00,
2013-01-19 08:50:00,37.6,23.3,30.28,SSW,212,7.0,23.0,56,0.00,,,0.00,Wunderground v.1.15,2013-01-19 13:50:00,
2013-01-19 08:55:00,37.8,23.5,30.28,SSW,207,8.0,23.0,56,0.00,,,0.00,Wunderground v.1.15,2013-01-19 13:55:00,
2013-01-19 09:00:00,38.4,24.1,30.28,WSW,257,9.0,9.0,56,0.00,,,0.00,Wunderground v.1.15,2013-01-19 14:00:00,
2013-01-19 09:10:00,39.3,24.5,30.28,SW,216,8.0,8.0,55,0.00,,,0.00,Wunderground v.1.15,2013-01-19 14:10:00,
2013-01-19 09:15:00,39.5,24.7,30.28,South,170,8.0,13.0,55,0.00,,,0.00,Wunderground v.1.15,2013-01-19 14:15:00,
2013-01-19 09:20:00,39.6,24.7,30.28,WSW,240,9.0,9.0,55,0.00,,,0.00,Wunderground v.1.15,2013-01-19 14:20:00,
2013-01-19 09:25:00,39.8,24.9,30.28,SSW,212,9.0,23.0,55,0.00,,,0.00,Wunderground v.1.15,2013-01-19 14:25:00,
2013-01-19 09:30:00,40.0,25.1,30.28,SW,229,9.0,23.0,55,0.00,,,0.00,Wunderground v.1.15,2013-01-19 14:30:00,
2013-01-19 09:35:00,40.2,24.9,30.28,SSW,212,9.0,23.0,54,0.00,,,0.00,Wunderground v.1.15,2013-01-19 14:35:00,
2013-01-19 09:45:00,40.4,25.5,30.28,WSW,256,10.0,23.0,55,0.00,,,0.00,Wunderground v.1.15,2013-01-19 14:45:00,
2013-01-19 09:50:00,40.7,25.3,30.28,WSW,240,10.0,10.0,54,0.00,,,0.00,Wunderground v.1.15,2013-01-19 14:50:00,
2013-01-19 09:55:00,41.2,25.8,30.28,SW,215,11.0,13.0,54,0.00,,,0.00,Wunderground v.1.15,2013-01-19 14:55:00,
2013-01-19 10:00:00,41.6,26.2,30.29,West,279,11.0,11.0,54,0.00,,,0.00,Wunderground v.1.15,2013-01-19 15:00:00,
2013-01-19 10:05:00,41.5,26.1,30.29,SW,221,10.0,23.0,54,0.00,,,0.00,Wunderground v.1.15,2013-01-19 15:05:00,
2013-01-19 10:15:00,41.3,25.9,30.28,SW,219,10.0,23.0,54,0.00,,,0.00,Wunderground v.1.15,2013-01-19 15:15:00,
2013-01-19 10:20:00,41.2,26.2,30.28,SW,216,11.0,11.0,55,0.00,,,0.00,Wunderground v.1.15,2013-01-19 15:20:00,
2013-01-19 10:25:00,41.3,25.9,30.28,WSW,239,12.0,12.0,54,0.00,,,0.00,Wunderground v.1.15,2013-01-19 15:25:00,
2013-01-19 10:30:00,41.3,25.9,30.28,SSW,209,12.0,12.0,54,0.00,,,0.00,Wunderground v.1.15,2013-01-19 15:30:00,
2013-01-19 10:35:00,41.4,26.0,30.28,SW,232,12.0,19.0,54,0.00,,,0.00,Wunderground v.1.15,2013-01-19 15:35:00,
2013-01-19 10:40:00,41.5,26.5,30.28,West,270,11.0,11.0,55,0.00,,,0.00,Wunderground v.1.15,2013-01-19 15:40:00,
2013-01-19 10:50:00,41.8,26.8,30.28,West,277,10.0,23.0,55,0.00,,,0.00,Wunderground v.1.15,2013-01-19 15:50:00,
2013-01-19 10:55:00,41.8,26.8,30.28,SW,232,11.0,23.0,55,0.00,,,0.00,Wunderground v.1.15,2013-01-19 15:55:00,
2013-01-19 11:00:00,41.8,26.8,30.27,WSW,246,12.0,23.0,55,0.00,,,0.00,Wunderground v.1.15,2013-01-19 16:00:00,
2013-01-19 11:05:00,41.8,26.8,30.27,SW,224,13.0,23.0,55,0.00,,,0.00,Wunderground v.1.15,2013-01-19 16:05:00,
2013-01-19 11:10:00,42.0,27.0,30.26,NW,307,11.0,11.0,55,0.00,,,0.00,Wunderground v.1.15,2013-01-19 16:10:00,
2013-01-19 11:20:00,42.2,27.2,30.26,SW,223,10.0,23.0,55,0.00,,,0.00,Wunderground v.1.15,2013-01-19 16:20:00,
2013-01-19 11:25:00,42.3,26.8,30.26,SW,221,11.0,23.0,54,0.00,,,0.00,Wunderground v.1.15,2013-01-19 16:25:00,
2013-01-19 11:30:00,42.4,26.9,30.26,WSW,240,11.0,11.0,54,0.00,,,0.00,Wunderground v.1.15,2013-01-19 16:30:00,
2013-01-19 11:35:00,42.4,26.9,30.25,SW,223,11.0,15.0,54,0.00,,,0.00,Wunderground v.1.15,2013-01-19 16:35:00,
2013-01-19 11:40:00,42.3,26.8,30.25,WSW,240,11.0,11.0,54,0.00,,,0.00,Wunderground v.1.15,2013-01-19 16:40:00,
2013-01-19 11:45:00,42.4,26.9,30.24,WSW,244,12.0,12.0,54,0.00,,,0.00,Wunderground v.1.15,2013-01-19 16:45:00,
2013-01-19 11:55:00,42.8,27.3,30.24,West,265,11.0,23.0,54,0.00,,,0.00,Wunderground v.1.15,2013-01-19 16:55:00,
2013-01-19 12:00:00,43.6,28.0,30.24,West,266,9.0,14.0,54,0.00,,,0.00,Wunderground v.1.15,2013-01-19 17:00:00,
2013-01-19 12:10:00,44.0,28.4,30.24,SW,214,9.0,11.0,54,0.00,,,0.00,Wunderground v.1.15,2013-01-19 17:10:00,
2013-01-19 12:15:00,44.5,28.9,30.24,WSW,242,9.0,11.0,54,0.00,,,0.00,Wunderground v.1.15,2013-01-19 17:15:00,
2013-01-19 12:25:00,44.9,29.2,30.24,SW,223,8.0,11.0,54,0.00,,,0.00,Wunderground v.1.15,2013-01-19 17:25:00,
2013-01-19 12:30:00,45.2,29.1,30.24,SSW,211,7.0,8.0,53,0.00,,,0.00,Wunderground v.1.15,2013-01-19 17:30:00,
2013-01-19 12:35:00,45.5,29.3,30.23,SW,220,8.0,8.0,53,0.00,,,0.00,Wunderground v.1.15,2013-01-19 17:35:00,
2013-01-19 12:40:00,45.4,28.3,30.23,WSW,241,9.0,9.0,51,0.00,,,0.00,Wunderground v.1.15,2013-01-19 17:40:00,
2013-01-19 12:45:00,45.8,29.6,30.24,WNW,293,9.0,9.0,53,0.00,,,0.00,Wunderground v.1.15,2013-01-19 17:45:00,
2013-01-19 12:50:00,45.9,28.8,30.23,SSW,206,8.0,8.0,51,0.00,,,0.00,Wunderground v.1.15,2013-01-19 17:50:00,
2013-01-19 13:00:00,45.8,29.6,30.23,SW,231,8.0,8.0,53,0.00,,,0.00,Wunderground v.1.15,2013-01-19 18:00:00,
2013-01-19 13:05:00,45.5,28.9,30.23,SSW,201,8.0,24.0,52,0.00,,,0.00,Wunderground v.1.15,2013-01-19 18:05:00,
2013-01-19 13:10:00,45.0,28.9,30.23,SSW,212,8.0,24.0,53,0.00,,,0.00,Wunderground v.1.15,2013-01-19 18:10:00,
2013-01-19 13:15:00,44.9,29.2,30.22,SSW,213,8.0,24.0,54,0.00,,,0.00,Wunderground v.1.15,2013-01-19 18:15:00,
2013-01-19 13:20:00,44.8,29.6,30.22,SSW,198,7.0,24.0,55,0.00,,,0.00,Wunderground v.1.15,2013-01-19 18:20:00,
2013-01-19 13:30:00,44.3,28.7,30.22,SW,236,9.0,9.0,54,0.00,,,0.00,Wunderground v.1.15,2013-01-19 18:30:00,
2013-01-19 13:35:00,44.2,29.0,30.22,SW,224,8.0,24.0,55,0.00,,,0.00,Wunderground v.1.15,2013-01-19 18:35:00,
2013-01-19 13:40:00,44.1,28.9,30.22,SW,216,6.0,24.0,55,0.00,,,0.00,Wunderground v.1.15,2013-01-19 18:40:00,
2013-01-19 13:45:00,44.1,28.9,30.22,SW,219,6.0,24.0,55,0.00,,,0.00,Wunderground v.1.15,2013-01-19 18:45:00,
2013-01-19 13:50:00,44.2,29.0,30.22,SW,227,7.0,24.0,55,0.00,,,0.00,Wunderground v.1.15,2013-01-19 18:50:00,
2013-01-19 13:55:00,44.2,29.5,30.22,SW,222,8.0,24.0,56,0.00,,,0.00,Wunderground v.1.15,2013-01-19 18:55:00,
2013-01-19 14:00:00,44.3,29.1,30.21,SSW,205,6.0,6.0,55,0.00,,,0.00,Wunderground v.1.15,2013-01-19 19:00:00,
2013-01-19 14:10:00,44.7,30.0,30.21,SW,233,4.0,4.0,56,0.00,,,0.00,Wunderground v.1.15,2013-01-19 19:10:00,
2013-01-19 14:15:00,44.9,30.1,30.20,SSW,207,3.0,5.0,56,0.00,,,0.00,Wunderground v.1.15,2013-01-19 19:15:00,
2013-01-19 14:20:00,45.3,30.5,30.20,WSW,253,3.0,24.0,56,0.00,,,0.00,Wunderground v.1.15,2013-01-19 19:20:00,
2013-01-19 14:30:00,45.9,30.2,30.20,SW,220,4.0,24.0,54,0.00,,,0.00,Wunderground v.1.15,2013-01-19 19:30:00,
2013-01-19 14:40:00,46.0,30.3,30.19,SW,215,6.0,6.0,54,0.00,,,0.00,Wunderground v.1.15,2013-01-19 19:40:00,
2013-01-19 14:45:00,45.9,30.2,30.19,WSW,244,4.0,24.0,54,0.00,,,0.00,Wunderground v.1.15,2013-01-19 19:45:00,
2013-01-19 14:50:00,45.9,30.2,30.19,SSW,206,4.0,4.0,54,0.00,,,0.00,Wunderground v.1.15,2013-01-19 19:50:00,
2013-01-19 14:55:00,45.9,30.2,30.19,SSW,196,3.0,24.0,54,0.00,,,0.00,Wunderground v.1.15,2013-01-19 19:55:00,
2013-01-19 15:00:00,45.8,30.1,30.19,SW,232,3.0,3.0,54,0.00,,,0.00,Wunderground v.1.15,2013-01-19 20:00:00,
2013-01-19 15:10:00,45.8,30.1,30.18,SSW,194,4.0,24.0,54,0.00,,,0.00,Wunderground v.1.15,2013-01-19 20:10:00,
2013-01-19 15:15:00,45.8,30.5,30.18,SSW,205,4.0,24.0,55,0.00,,,0.00,Wunderground v.1.15,2013-01-19 20:15:00,
2013-01-19 15:25:00,45.8,30.5,30.17,SSW,211,4.0,24.0,55,0.00,,,0.00,Wunderground v.1.15,2013-01-19 20:25:00,
2013-01-19 15:30:00,45.8,30.5,30.17,SSW,209,4.0,4.0,55,0.00,,,0.00,Wunderground v.1.15,2013-01-19 20:30:00,
2013-01-19 15:35:00,46.0,30.7,30.17,SW,222,4.0,5.0,55,0.00,,,0.00,Wunderground v.1.15,2013-01-19 20:35:00,
2013-01-19 15:40:00,45.9,31.1,30.17,SW,224,4.0,4.0,56,0.00,,,0.00,Wunderground v.1.15,2013-01-19 20:40:00,
2013-01-19 15:45:00,45.8,31.0,30.17,SW,232,4.0,24.0,56,0.00,,,0.00,Wunderground v.1.15,2013-01-19 20:45:00,
2013-01-19 15:55:00,45.8,31.0,30.16,SW,216,2.0,24.0,56,0.00,,,0.00,Wunderground v.1.15,2013-01-19 20:55:00,
2013-01-19 16:00:00,45.7,30.9,30.16,SW,216,1.0,24.0,56,0.00,,,0.00,Wunderground v.1.15,2013-01-19 21:00:00,
2013-01-19 16:05:00,45.6,30.8,30.16,SW,216,1.0,24.0,56,0.00,,,0.00,Wunderground v.1.15,2013-01-19 21:05:00,
2013-01-19 16:10:00,45.4,30.6,30.15,SW,215,1.0,24.0,56,0.00,,,0.00,Wunderground v.1.15,2013-01-19 21:10:00,
2013-01-19 16:15:00,45.3,30.5,30.15,SW,215,1.0,24.0,56,0.00,,,0.00,Wunderground v.1.15,2013-01-19 21:15:00,
2013-01-19 16:20:00,45.1,30.8,30.15,SW,215,2.0,24.0,57,0.00,,,0.00,Wunderground v.1.15,2013-01-19 21:20:00,
2013-01-19 16:30:00,45.0,30.7,30.15,SSW,194,3.0,24.0,57,0.00,,,0.00,Wunderground v.1.15,2013-01-19 21:30:00,
2013-01-19 16:50:00,44.9,29.7,30.14,SSW,197,4.0,4.0,55,0.00,,,0.00,Wunderground v.1.15,2013-01-19 21:50:00,
2013-01-19 16:55:00,44.9,29.7,30.13,SW,217,4.0,24.0,55,0.00,,,0.00,Wunderground v.1.15,2013-01-19 21:55:00,
2013-01-19 17:00:00,44.9,29.7,30.13,WSW,238,4.0,4.0,55,0.00,,,0.00,Wunderground v.1.15,2013-01-19 22:00:00,
2013-01-19 17:10:00,44.7,29.5,30.13,South,171,3.0,3.0,55,0.00,,,0.00,Wunderground v.1.15,2013-01-19 22:10:00,
2013-01-19 17:15:00,44.5,29.8,30.12,South,170,2.0,24.0,56,0.00,,,0.00,Wunderground v.1.15,2013-01-19 22:15:00,
2013-01-19 17:20:00,44.3,29.6,30.12,South,180,3.0,24.0,56,0.00,,,0.00,Wunderground v.1.15,2013-01-19 22:20:00,
2013-01-19 17:25:00,44.2,29.5,30.12,South,169,4.0,24.0,56,0.00,,,0.00,Wunderground v.1.15,2013-01-19 22:25:00,
2013-01-19 17:30:00,44.0,29.7,30.12,South,172,3.0,3.0,57,0.00,,,0.00,Wunderground v.1.15,2013-01-19 22:30:00,
2013-01-19 17:40:00,43.9,29.2,30.11,SE,145,4.0,24.0,56,0.00,,,0.00,Wunderground v.1.15,2013-01-19 22:40:00,
2013-01-19 17:50:00,44.0,29.7,30.11,SSE,166,5.0,24.0,57,0.00,,,0.00,Wunderground v.1.15,2013-01-19 22:50:00,
2013-01-19 17:55:00,44.0,29.3,30.10,SSE,147,5.0,24.0,56,0.00,,,0.00,Wunderground v.1.15,2013-01-19 22:55:00,
2013-01-19 18:00:00,44.0,29.7,30.10,SSE,159,5.0,5.0,57,0.00,,,0.00,Wunderground v.1.15,2013-01-19 23:00:00,
2013-01-19 18:10:00,43.9,29.6,30.09,SSE,155,4.0,4.0,57,0.00,,,0.00,Wunderground v.1.15,2013-01-19 23:10:00,
2013-01-19 18:15:00,43.7,29.9,30.09,SSE,156,3.0,4.0,58,0.00,,,0.00,Wunderground v.1.15,2013-01-19 23:15:00,
2013-01-19 18:25:00,43.6,29.8,30.08,SSE,159,4.0,5.0,58,0.00,,,0.00,Wunderground v.1.15,2013-01-19 23:25:00,
2013-01-19 18:30:00,43.6,29.4,30.08,SE,137,5.0,6.0,57,0.00,,,0.00,Wunderground v.1.15,2013-01-19 23:30:00,
2013-01-19 18:40:00,43.8,29.1,30.07,SSE,162,5.0,5.0,56,0.00,,,0.00,Wunderground v.1.15,2013-01-19 23:40:00,
2013-01-19 18:50:00,44.3,29.1,30.06,SSE,161,5.0,5.0,55,0.00,,,0.00,Wunderground v.1.15,2013-01-19 23:50:00,
2013-01-19 19:00:00,44.5,28.4,30.06,SSE,167,5.0,5.0,53,0.00,,,0.00,Wunderground v.1.15,2013-01-20 00:00:00,
2013-01-19 19:05:00,44.5,28.4,30.06,South,184,6.0,6.0,53,0.00,,,0.00,Wunderground v.1.15,2013-01-20 00:05:00,
2013-01-19 19:10:00,44.4,28.3,30.05,SSW,205,5.0,5.0,53,0.00,,,0.00,Wunderground v.1.15,2013-01-20 00:10:00,
2013-01-19 19:15:00,44.3,28.2,30.05,South,175,5.0,9.0,53,0.00,,,0.00,Wunderground v.1.15,2013-01-20 00:15:00,
2013-01-19 19:20:00,44.3,27.8,30.05,SSW,213,5.0,9.0,52,0.00,,,0.00,Wunderground v.1.15,2013-01-20 00:20:00,
2013-01-19 19:30:00,44.6,27.6,30.05,South,177,7.0,7.0,51,0.00,,,0.00,Wunderground v.1.15,2013-01-20 00:30:00,
2013-01-19 19:35:00,44.6,27.6,30.05,SSW,196,6.0,9.0,51,0.00,,,0.00,Wunderground v.1.15,2013-01-20 00:35:00,
2013-01-19 19:40:00,44.6,27.1,30.04,SSW,206,6.0,10.0,50,0.00,,,0.00,Wunderground v.1.15,2013-01-20 00:40:00,
2013-01-19 19:45:00,44.6,27.1,30.04,South,184,7.0,10.0,50,0.00,,,0.00,Wunderground v.1.15,2013-01-20 00:45:00,
2013-01-19 19:55:00,44.7,26.7,30.03,SW,219,8.0,9.0,49,0.00,,,0.00,Wunderground v.1.15,2013-01-20 00:55:00,
2013-01-19 20:00:00,44.6,26.6,30.03,West,261,8.0,9.0,49,0.00,,,0.00,Wunderground v.1.15,2013-01-20 01:00:00,
2013-01-19 20:10:00,44.5,26.0,30.03,SSW,210,8.0,8.0,48,0.00,,,0.00,Wunderground v.1.15,2013-01-20 01:10:00,
2013-01-19 20:15:00,44.9,25.3,30.03,South,188,9.0,9.0,46,0.00,,,0.00,Wunderground v.1.15,2013-01-20 01:15:00,
2013-01-19 20:25:00,45.0,25.4,30.03,SW,235,9.0,9.0,46,0.00,,,0.00,Wunderground v.1.15,2013-01-20 01:25:00,
2013-01-19 20:30:00,44.9,25.9,30.02,SSW,210,9.0,9.0,47,0.00,,,0.00,Wunderground v.1.15,2013-01-20 01:30:00,
2013-01-19 20:35:00,44.7,25.7,30.02,South,178,9.0,10.0,47,0.00,,,0.00,Wunderground v.1.15,2013-01-20 01:35:00,
2013-01-19 20:45:00,44.4,25.9,30.02,SSW,213,8.0,12.0,48,0.00,,,0.00,Wunderground v.1.15,2013-01-20 01:45:00,
2013-01-19 20:50:00,44.5,25.5,30.02,South,191,7.0,11.0,47,0.00,,,0.00,Wunderground v.1.15,2013-01-20 01:50:00,
2013-01-19 20:55:00,44.6,25.6,30.02,SW,224,8.0,11.0,47,0.00,,,0.00,Wunderground v.1.15,2013-01-20 01:55:00,
2013-01-19 21:00:00,45.0,25.4,30.02,SSW,205,8.0,9.0,46,0.00,,,0.00,Wunderground v.1.15,2013-01-20 02:00:00,
2013-01-19 21:10:00,45.4,25.8,30.01,SSW,194,8.0,9.0,46,0.00,,,0.00,Wunderground v.1.15,2013-01-20 02:10:00,
2013-01-19 21:15:00,45.6,25.5,30.01,SSW,193,9.0,16.0,45,0.00,,,0.00,Wunderground v.1.15,2013-01-20 02:15:00,
2013-01-19 21:20:00,45.8,25.6,30.01,SSW,205,9.0,9.0,45,0.00,,,0.00,Wunderground v.1.15,2013-01-20 02:20:00,
2013-01-19 21:25:00,45.9,25.7,30.01,SSW,194,8.0,9.0,45,0.00,,,0.00,Wunderground v.1.15,2013-01-20 02:25:00,
2013-01-19 21:30:00,46.0,25.3,30.00,South,185,8.0,11.0,44,0.00,,,0.00,Wunderground v.1.15,2013-01-20 02:30:00,
2013-01-19 21:35:00,46.3,25.6,30.00,SSW,198,9.0,11.0,44,0.00,,,0.00,Wunderground v.1.15,2013-01-20 02:35:00,
2013-01-19 21:40:00,46.5,25.2,30.00,SSW,205,9.0,13.0,43,0.00,,,0.00,Wunderground v.1.15,2013-01-20 02:40:00,
2013-01-19 21:50:00,46.8,26.0,29.99,SW,216,9.0,9.0,44,0.00,,,0.00,Wunderground v.1.15,2013-01-20 02:50:00,
2013-01-19 21:55:00,46.7,24.8,29.99,SW,227,8.0,12.0,42,0.00,,,0.00,Wunderground v.1.15,2013-01-20 02:55:00,
2013-01-19 22:00:00,46.8,25.5,29.99,SW,226,9.0,11.0,43,0.00,,,0.00,Wunderground v.1.15,2013-01-20 03:00:00,
2013-01-19 22:05:00,47.1,25.2,29.98,SSW,205,10.0,16.0,42,0.00,,,0.00,Wunderground v.1.15,2013-01-20 03:05:00,
2013-01-19 22:10:00,47.2,25.3,29.98,SW,217,11.0,11.0,42,0.00,,,0.00,Wunderground v.1.15,2013-01-20 03:10:00,
2013-01-19 22:20:00,47.2,25.3,29.98,SSW,194,10.0,10.0,42,0.00,,,0.00,Wunderground v.1.15,2013-01-20 03:20:00,
2013-01-19 22:25:00,47.4,25.4,29.97,ENE,64,11.0,11.0,42,0.00,,,0.00,Wunderground v.1.15,2013-01-20 03:25:00,
2013-01-19 22:30:00,47.3,25.3,29.97,SW,223,11.0,13.0,42,0.00,,,0.00,Wunderground v.1.15,2013-01-20 03:30:00,
2013-01-19 22:35:00,47.3,25.9,29.97,SW,226,10.0,14.0,43,0.00,,,0.00,Wunderground v.1.15,2013-01-20 03:35:00,
2013-01-19 22:40:00,47.2,25.8,29.97,SSW,198,10.0,11.0,43,0.00,,,0.00,Wunderground v.1.15,2013-01-20 03:40:00,
2013-01-19 22:50:00,47.3,25.9,29.96,SW,221,13.0,15.0,43,0.00,,,0.00,Wunderground v.1.15,2013-01-20 03:50:00,
2013-01-19 22:55:00,47.3,25.9,29.96,SSW,213,12.0,15.0,43,0.00,,,0.00,Wunderground v.1.15,2013-01-20 03:55:00,
2013-01-19 23:00:00,47.2,26.4,29.95,South,180,12.0,16.0,44,0.00,,,0.00,Wunderground v.1.15,2013-01-20 04:00:00,
2013-01-19 23:05:00,47.1,26.3,29.95,WSW,250,12.0,17.0,44,0.00,,,0.00,Wunderground v.1.15,2013-01-20 04:05:00,
2013-01-19 23:10:00,47.3,25.9,29.95,South,182,13.0,15.0,43,0.00,,,0.00,Wunderground v.1.15,2013-01-20 04:10:00,
2013-01-19 23:15:00,47.2,25.8,29.94,SSE,166,13.0,17.0,43,0.00,,,0.00,Wunderground v.1.15,2013-01-20 04:15:00,
2013-01-19 23:20:00,46.8,26.0,29.94,SW,234,12.0,13.0,44,0.00,,,0.00,Wunderground v.1.15,2013-01-20 04:20:00,
2013-01-19 23:25:00,46.6,25.8,29.94,SW,232,11.0,13.0,44,0.00,,,0.00,Wunderground v.1.15,2013-01-20 04:25:00,
2013-01-19 23:35:00,46.7,25.9,29.93,SW,221,12.0,13.0,44,0.00,,,0.00,Wunderground v.1.15,2013-01-20 04:35:00,
2013-01-19 23:40:00,46.4,26.2,29.93,SW,221,12.0,12.0,45,0.00,,,0.00,Wunderground v.1.15,2013-01-20 04:40:00,
2013-01-19 23:45:00,46.4,26.7,29.93,SW,214,11.0,12.0,46,0.00,,,0.00,Wunderground v.1.15,2013-01-20 04:45:00,
2013-01-19 23:50:00,46.2,26.0,29.92,SSW,209,12.0,12.0,45,0.00,,,0.00,Wunderground v.1.15,2013-01-20 04:50:00,
2013-01-19 23:55:00,46.1,26.4,29.92,SW,228,10.0,12.0,46,0.00,,,0.00,Wunderground v.1.15,2013-01-20 04:55:00,